User: anonymous   Login
Location: Unspecified
(0.0000°N, 0.0000°E)
Time: 22:46:05
(UTC+00:00)
Language:

NNS O-31 - Orbit

View from above orbital plane
View from above orbital plane
View from above satellite
View from above satellite

Ground track
Ground track

The orbit data is extracted from the following two-line orbital elements,

1 19420U 88074B   24108.33732716  .00000159  00000-0  25692-3 0  9992
2 19420  90.0253  18.8925 0094704 163.5367 324.2579 13.42432116745415
Epoch (UTC): 17 April 2024 08:05:45
Eccentricity: 0.0094704
inclination: 90.0253°
perigee height: 1029 km
apogee height: 1171 km
right ascension of ascending node: 18.8925°
argument of perigee: 163.5367°
revolutions per day: 13.42432116
mean anomaly at epoch: 324.2579°
orbit number at epoch: 74541

The dashed part of the orbit path shows where the satellite is in the earth's shadow,  

DLR